STARLINK-34546 (64718 NORAD) Tracking and Keplerian Element Data

This shows tracking and keplerian element data for the satellite.

Feedback or suggestion? Click here.




ElementValue
Catalog64718
NameSTARLINK-34546
Epoch Orbit2769
Epoch Day353.83587834
Epoch Year2025
RAAN155.6253
Inclination70.0005
Eccentricity0.0003089
Argument of Perigee270.9766
Mean Anonmoly89.1039
Mean Motion14.98346249
Decay Rate3.643E-05
L11 64718U 25142Y 25353.83587834 .00003643 00000+0 31283-3 0 9999
L22 64718 70.0005 155.6253 0003089 270.9766 89.1039 14.98346249 27698



Live tracking and technical data element details for STARLINK-34546 (NORAD 64718). STARLINK-34546 can be tracked NOW for your location showing map with azimuth and elevation plus other details from your city location.







IsCatalogInMostPopularTable: catalog: 64718, numindb: 13
Update: records affected: 1



GetName: 64718 STARLINK-34546

Hit Count: updated at: Tue, 21 Apr 2026 19:35:46 GMT